When you browse on this site, cookies collect data to enhance your experience and personalize the content and advertising you see.
Visit our Privacy Policy to learn more. By continuing to use the site, you agree to this use of cookies and data.
  • In United Kingdom
  • List of Countries
  • For 7 days
  • Water Temperature
  • Weather Map
  • Weather Widgets
  • user-avatar
    Login

    Hourly Weather Tomsharovo

    Today, 18 September, Wednesday

    Time Temperature Precipitation Wind Pressure Humidity
    00:00 +5°C° 0 mm 3 mps 737 mmHg 96%
    01:00 +5°C° 0 mm 3 mps 738 mmHg 96%
    02:00 +5°C° 0 mm 3 mps 738 mmHg 97%
    03:00 +5°C° 0 mm 3 mps 738 mmHg 98%
    04:00 +5°C° 0 mm 3 mps 738 mmHg 97%
    05:00 +5°C° 0 mm 3 mps 739 mmHg 96%
    06:00 +5°C° 0 mm 4 mps 739 mmHg 95%
    07:00 +6°C° 0 mm 4 mps 739 mmHg 93%
    08:00 +6°C° 0 mm 4 mps 739 mmHg 90%
    09:00 +7°C° 0 mm 4 mps 739 mmHg 88%
    10:00 +8°C° 0 mm 4 mps 740 mmHg 83%
    11:00 +10°C° 0 mm 4 mps 740 mmHg 78%
    12:00 +11°C° 0 mm 4 mps 740 mmHg 73%
    13:00 +11°C° 0.1 mm 4 mps 740 mmHg 71%
    14:00 +12°C° 0.1 mm 3 mps 740 mmHg 70%
    15:00 +12°C° 0.1 mm 3 mps 740 mmHg 68%
    16:00 +10°C° 0.3 mm 2 mps 740 mmHg 76%
    17:00 +9°C° 0.3 mm 2 mps 740 mmHg 83%
    18:00 +9°C° 0.3 mm 1 mps 740 mmHg 91%
    19:00 +8°C° 0 mm 1 mps 739 mmHg 92%
    20:00 +8°C° 0 mm 1 mps 739 mmHg 92%
    21:00 +7°C° 0 mm 1 mps 739 mmHg 93%
    22:00 +7°C° 0 mm 1 mps 738 mmHg 94%
    23:00 +7°C° 0 mm 1 mps 738 mmHg 94%

    Tomorrow, 19 September, Thursday

    Time Temperature Precipitation Wind Pressure Humidity
    00:00 +6°C° 0 mm 1 mps 737 mmHg 94%
    01:00 +5°C° 0 mm 2 mps 737 mmHg 95%
    02:00 +5°C° 0 mm 2 mps 736 mmHg 95%
    03:00 +4°C° 0 mm 3 mps 736 mmHg 95%
    04:00 +4°C° 0 mm 3 mps 736 mmHg 95%
    05:00 +4°C° 0 mm 3 mps 735 mmHg 95%
    06:00 +4°C° 0 mm 4 mps 735 mmHg 95%
    07:00 +5°C° 0 mm 4 mps 736 mmHg 92%
    08:00 +6°C° 0 mm 4 mps 736 mmHg 88%
    09:00 +7°C° 0 mm 4 mps 737 mmHg 85%
    10:00 +8°C° 0.1 mm 4 mps 738 mmHg 80%
    11:00 +10°C° 0.1 mm 4 mps 738 mmHg 76%
    12:00 +10°C° 0.1 mm 5 mps 739 mmHg 72%
    13:00 +10°C° 0.3 mm 5 mps 740 mmHg 72%
    14:00 +10°C° 0.3 mm 5 mps 740 mmHg 73%
    15:00 +9°C° 0.3 mm 6 mps 741 mmHg 74%
    16:00 +8°C° 0.1 mm 5 mps 742 mmHg 79%
    17:00 +7°C° 0.1 mm 5 mps 743 mmHg 84%
    18:00 +6°C° 0.1 mm 4 mps 744 mmHg 89%
    19:00 +5°C° 0 mm 4 mps 744 mmHg 90%
    20:00 +4°C° 0 mm 3 mps 745 mmHg 91%
    21:00 +4°C° 0 mm 3 mps 745 mmHg 92%
    22:00 +4°C° 0 mm 3 mps 746 mmHg 92%
    23:00 +4°C° 0 mm 3 mps 746 mmHg 91%

    Day after tomorrow, 20 September, Friday

    Time Temperature Precipitation Wind Pressure Humidity
    00:00 +3°C° 0 mm 3 mps 747 mmHg 91%
    01:00 +3°C° 0 mm 3 mps 747 mmHg 92%
    02:00 +3°C° 0 mm 2 mps 748 mmHg 92%
    03:00 +3°C° 0 mm 2 mps 748 mmHg 93%
    04:00 +3°C° 0 mm 2 mps 748 mmHg 92%
    05:00 +3°C° 0 mm 2 mps 749 mmHg 92%
    06:00 +2°C° 0 mm 2 mps 749 mmHg 91%
    07:00 +4°C° 0 mm 2 mps 749 mmHg 85%
    08:00 +5°C° 0 mm 2 mps 750 mmHg 79%
    09:00 +6°C° 0 mm 2 mps 750 mmHg 74%
    10:00 +8°C° 0 mm 1 mps 750 mmHg 67%
    11:00 +9°C° 0 mm 1 mps 750 mmHg 61%
    12:00 +10°C° 0 mm 1 mps 750 mmHg 55%
    13:00 +10°C° 0.1 mm 1 mps 750 mmHg 55%
    14:00 +10°C° 0.1 mm 1 mps 750 mmHg 55%
    15:00 +9°C° 0.1 mm 2 mps 750 mmHg 55%
    16:00 +9°C° 0.1 mm 1 mps 750 mmHg 61%
    17:00 +8°C° 0.1 mm 1 mps 750 mmHg 68%
    18:00 +6°C° 0.1 mm 1 mps 749 mmHg 74%
    19:00 +6°C° 0 mm 1 mps 749 mmHg 75%
    20:00 +6°C° 0 mm 1 mps 749 mmHg 77%
    21:00 +5°C° 0 mm 1 mps 749 mmHg 79%
    22:00 +5°C° 0.1 mm 1 mps 749 mmHg 81%
    23:00 +5°C° 0.1 mm 1 mps 749 mmHg 82%

    21 September, Saturday

    Time Temperature Precipitation Wind Pressure Humidity
    00:00 +5°C° 0.1 mm 1 mps 749 mmHg 84%
    01:00 +5°C° 0.6 mm 1 mps 749 mmHg 88%
    02:00 +5°C° 0.6 mm 1 mps 749 mmHg 91%
    03:00 +4°C° 0.6 mm 0 mps 748 mmHg 95%
    04:00 +5°C° 0 mm 1 mps 748 mmHg 95%
    05:00 +5°C° 0 mm 1 mps 748 mmHg 95%
    06:00 +5°C° 0 mm 1 mps 748 mmHg 94%
    07:00 +6°C° 0 mm 1 mps 748 mmHg 89%
    08:00 +5°C° 0 mm 2 mps 748 mmHg 85%
    09:00 +6°C° 0 mm 2 mps 748 mmHg 80%
    10:00 +7°C° 0.1 mm 2 mps 748 mmHg 73%
    11:00 +8°C° 0.1 mm 2 mps 748 mmHg 65%
    12:00 +9°C° 0.1 mm 3 mps 748 mmHg 58%
    13:00 +9°C° 0 mm 2 mps 748 mmHg 56%
    14:00 +9°C° 0 mm 2 mps 747 mmHg 54%
    15:00 +9°C° 0 mm 2 mps 747 mmHg 52%
    16:00 +8°C° 0 mm 2 mps 747 mmHg 58%
    17:00 +8°C° 0 mm 1 mps 747 mmHg 64%
    18:00 +6°C° 0 mm 1 mps 746 mmHg 70%
    19:00 +5°C° 0 mm 1 mps 746 mmHg 73%
    20:00 +5°C° 0 mm 1 mps 746 mmHg 76%
    21:00 +3°C° 0 mm 2 mps 746 mmHg 79%
    22:00 +3°C° 0 mm 2 mps 745 mmHg 83%
    23:00 +2°C° 0 mm 2 mps 745 mmHg 86%

    22 September, Sunday

    Time Temperature Precipitation Wind Pressure Humidity
    00:00 +2°C° 0 mm 2 mps 744 mmHg 89%
    01:00 +2°C° 0 mm 1 mps 744 mmHg 91%
    02:00 +2°C° 0 mm 1 mps 743 mmHg 92%
    03:00 +2°C° 0 mm 1 mps 743 mmHg 93%
    04:00 +1°C° 0 mm 2 mps 742 mmHg 94%
    05:00 +1°C° 0 mm 2 mps 742 mmHg 94%
    06:00 +1°C° 0 mm 2 mps 742 mmHg 94%
    07:00 +2°C° 0 mm 3 mps 741 mmHg 89%
    08:00 +3°C° 0 mm 3 mps 740 mmHg 83%
    09:00 +4°C° 0 mm 3 mps 740 mmHg 77%
    10:00 +5°C° 0 mm 4 mps 739 mmHg 73%
    11:00 +6°C° 0 mm 4 mps 738 mmHg 69%
    12:00 +7°C° 0 mm 5 mps 738 mmHg 66%
    13:00 +7°C° 0.1 mm 5 mps 737 mmHg 65%
    14:00 +7°C° 0.1 mm 5 mps 736 mmHg 65%
    15:00 +7°C° 0.1 mm 4 mps 736 mmHg 65%
    16:00 +6°C° 0.5 mm 4 mps 735 mmHg 73%
    17:00 +5°C° 0.5 mm 4 mps 735 mmHg 82%
    18:00 +4°C° 0.5 mm 4 mps 735 mmHg 90%
    19:00 +3°C° 0.7 mm 5 mps 735 mmHg 90%
    20:00 +3°C° 0.7 mm 5 mps 735 mmHg 89%
    21:00 +2°C° 0.7 mm 5 mps 735 mmHg 89%
    22:00 +2°C° 0.5 mm 6 mps 735 mmHg 90%
    23:00 +2°C° 0.5 mm 6 mps 735 mmHg 91%

    23 September, Monday

    Time Temperature Precipitation Wind Pressure Humidity
    00:00 +2°C° 0.5 mm 6 mps 736 mmHg 92%
    01:00 +2°C° 0.1 mm 6 mps 736 mmHg 92%
    02:00 +2°C° 0.1 mm 6 mps 737 mmHg 93%
    03:00 +2°C° 0.1 mm 7 mps 738 mmHg 93%
    04:00 0°C° 0.2 mm 7 mps 739 mmHg 94%
    05:00 0°C° 0.2 mm 7 mps 739 mmHg 94%
    06:00 -1°C° 0.2 mm 7 mps 740 mmHg 95%
    07:00 -1°C° 0.1 mm 7 mps 741 mmHg 90%
    08:00 0°C° 0.1 mm 7 mps 742 mmHg 86%
    09:00 0°C° 0.1 mm 7 mps 743 mmHg 81%
    10:00 +2°C° 0 mm 7 mps 743 mmHg 76%
    11:00 +3°C° 0 mm 7 mps 744 mmHg 72%
    12:00 +4°C° 0 mm 7 mps 745 mmHg 68%
    13:00 +3°C° 0 mm 6 mps 745 mmHg 66%
    14:00 +3°C° 0 mm 6 mps 745 mmHg 65%
    15:00 +3°C° 0 mm 6 mps 746 mmHg 64%
    16:00 +2°C° 0 mm 5 mps 746 mmHg 68%
    17:00 +1°C° 0 mm 4 mps 747 mmHg 73%
    18:00 +1°C° 0 mm 3 mps 747 mmHg 77%
    19:00 +1°C° 0 mm 3 mps 748 mmHg 79%
    20:00 +1°C° 0 mm 3 mps 748 mmHg 81%
    21:00 +1°C° 0 mm 3 mps 748 mmHg 82%
    22:00 +1°C° 0 mm 3 mps 748 mmHg 81%
    23:00 +1°C° 0 mm 3 mps 749 mmHg 80%
    Show more